| time (UTC) | temp F | wind direction | speed knots | gust knots | rain 1hr in | rain 24hr in | rain mn in | humidity % | barometer mb |
| 20260507093530 | 53 | 283 | 1.7 | 6.1 | 0.00 | 0.09 | 0.00 | 81 | 1015.5 |
| 20260507093034 | 53 | 281 | 1.7 | 5.2 | 0.00 | 0.09 | 0.00 | 82 | 1015.4 |
| 20260507092528 | 53 | 289 | 0.9 | 5.2 | 0.00 | 0.09 | 0.00 | 82 | 1015.4 |
| 20260507092029 | 53 | 295 | 1.7 | 3.5 | 0.00 | 0.09 | 0.00 | 82 | 1015.3 |
| 20260507091527 | 53 | 360 | 0.9 | 3.5 | 0.00 | 0.09 | 0.00 | 82 | 1015.3 |
| 20260507091026 | 52 | 286 | 0.9 | 7.0 | 0.00 | 0.09 | 0.00 | 82 | 1015.2 |
| 20260507090527 | 52 | 302 | 0.9 | 7.0 | 0.00 | 0.09 | 0.00 | 82 | 1015.2 |
| 20260507090024 | 52 | 290 | 0.9 | 6.1 | 0.00 | 0.09 | 0.00 | 82 | 1015.1 |
| 20260507085523 | 52 | 201 | 1.7 | 6.1 | 0.00 | 0.09 | 0.00 | 82 | 1015.1 |
| 20260507085023 | 52 | 269 | 0.0 | 3.5 | 0.00 | 0.09 | 0.00 | 82 | 1015.0 |
| 20260507084529 | 52 | 306 | 0.9 | 2.6 | 0.00 | 0.09 | 0.00 | 82 | 1015.0 |
| 20260507084021 | 52 | 99 | 0.9 | 2.6 | 0.00 | 0.09 | 0.00 | 82 | 1014.8 |
| 20260507083521 | 52 | 360 | 0.0 | 4.3 | 0.00 | 0.09 | 0.00 | 83 | 1014.9 |
| 20260507083020 | 52 | 341 | 0.9 | 4.3 | 0.00 | 0.09 | 0.00 | 83 | 1014.8 |
| 20260507082518 | 52 | 271 | 0.0 | 3.5 | 0.00 | 0.09 | 0.00 | 84 | 1014.8 |
| 20260507082018 | 52 | 344 | 0.9 | 4.3 | 0.00 | 0.09 | 0.00 | 84 | 1014.8 |
| 20260507081527 | 51 | 288 | 0.9 | 4.3 | 0.00 | 0.09 | 0.00 | 84 | 1014.7 |
| 20260507081016 | 51 | 310 | 1.7 | 5.2 | 0.00 | 0.09 | 0.00 | 84 | 1014.7 |
| 20260507080517 | 51 | 299 | 1.7 | 5.2 | 0.00 | 0.09 | 0.00 | 85 | 1014.7 |
| 20260507080013 | 51 | 279 | 0.9 | 3.5 | 0.00 | 0.09 | 0.00 | 85 | 1014.6 |
| 20260507075513 | 51 | 300 | 0.9 | 6.1 | 0.00 | 0.09 | 0.00 | 85 | 1014.6 |
| 20260507075013 | 51 | 306 | 0.9 | 4.3 | 0.00 | 0.09 | 0.00 | 85 | 1014.6 |
| 20260507074512 | 51 | 302 | 0.0 | 2.6 | 0.00 | 0.09 | 0.00 | 86 | 1014.5 |
| 20260507074009 | 51 | 250 | 0.0 | 7.0 | 0.00 | 0.09 | 0.00 | 86 | 1014.4 |
| 20260507073512 | 51 | 288 | 1.7 | 7.0 | 0.00 | 0.09 | 0.00 | 86 | 1014.4 |
| 20260507073008 | 51 | 309 | 1.7 | 6.1 | 0.00 | 0.09 | 0.00 | 87 | 1014.3 |
| 20260507072508 | 50 | 324 | 0.9 | 4.3 | 0.00 | 0.09 | 0.00 | 87 | 1014.3 |
| 20260507072007 | 50 | 300 | 1.7 | 4.3 | 0.00 | 0.09 | 0.00 | 87 | 1014.2 |
| 20260507071506 | 50 | 288 | 0.9 | 5.2 | 0.00 | 0.09 | 0.00 | 88 | 1014.2 |
| 20260507071005 | 50 | 349 | 0.0 | 4.3 | 0.00 | 0.09 | 0.00 | 88 | 1014.1 |
| 20260507070608 | 50 | 5 | 0.9 | 3.5 | 0.00 | 0.09 | 0.00 | 88 | 1014.1 |
| 20260507070011 | 50 | 331 | 0.9 | 4.3 | 0.00 | 0.09 | 0.00 | 89 | 1014.1 |
| 20260507065505 | 50 | 285 | 1.7 | 4.3 | 0.00 | 0.09 | 0.00 | 89 | 1014.1 |
| 20260507065003 | 50 | 309 | 0.9 | 3.5 | 0.00 | 0.09 | 0.00 | 89 | 1014.1 |
| 20260507064503 | 50 | 298 | 0.9 | 3.5 | 0.00 | 0.09 | 0.00 | 89 | 1014.1 |
| 20260507064003 | 49 | 317 | 0.9 | 4.3 | 0.00 | 0.09 | 0.00 | 89 | 1014.0 |
| 20260507063503 | 49 | 305 | 0.9 | 6.1 | 0.00 | 0.09 | 0.00 | 90 | 1013.9 |
| 20260507063104 | 49 | 269 | 1.7 | 6.1 | 0.00 | 0.09 | 0.00 | 90 | 1013.9 |
| 20260507062600 | 49 | 281 | 2.6 | 6.1 | 0.00 | 0.09 | 0.00 | 90 | 1013.8 |
| 20260507062058 | 49 | 277 | 0.0 | 2.6 | 0.00 | 0.09 | 0.00 | 91 | 1013.7 |
| 20260507061558 | 49 | 292 | 0.9 | 2.6 | 0.00 | 0.09 | 0.00 | 91 | 1013.7 |
| 20260507061057 | 49 | 306 | 0.0 | 2.6 | 0.00 | 0.09 | 0.00 | 91 | 1013.7 |
| 20260507060559 | 49 | 304 | 0.0 | 2.6 | 0.00 | 0.09 | 0.00 | 91 | 1013.5 |
| 20260507060100 | 49 | 279 | 0.0 | 2.6 | 0.00 | 0.09 | 0.00 | 91 | 1013.5 |
| 20260507055553 | 48 | 277 | 0.0 | 2.6 | 0.00 | 0.09 | 0.00 | 91 | 1013.4 |
| 20260507055052 | 48 | 284 | 0.0 | 3.5 | 0.00 | 0.09 | 0.00 | 91 | 1013.3 |
| 20260507054551 | 48 | 348 | 0.0 | 3.5 | 0.00 | 0.09 | 0.00 | 91 | 1013.2 |
| 20260507054054 | 48 | 317 | 0.0 | 2.6 | 0.00 | 0.09 | 0.00 | 91 | 1013.1 |
| 20260507053549 | 48 | 325 | 0.9 | 2.6 | 0.00 | 0.09 | 0.00 | 91 | 1013.1 |
| 20260507053048 | 48 | 339 | 0.0 | 4.3 | 0.00 | 0.09 | 0.00 | 91 | 1013.2 |
| 20260507052548 | 48 | 299 | 0.9 | 3.5 | 0.00 | 0.09 | 0.00 | 91 | 1013.1 |
| 20260507052046 | 48 | 339 | 0.9 | 2.6 | 0.00 | 0.09 | 0.00 | 92 | 1012.9 |
| 20260507051546 | 48 | 348 | 0.0 | 3.5 | 0.00 | 0.09 | 0.00 | 92 | 1012.8 |
| 20260507051044 | 48 | 299 | 0.9 | 3.5 | 0.00 | 0.09 | 0.00 | 92 | 1012.7 |
| 20260507050546 | 48 | 288 | 0.9 | 4.3 | 0.00 | 0.09 | 0.00 | 92 | 1012.6 |
| 20260507050044 | 48 | 283 | 0.0 | 4.3 | 0.00 | 0.09 | 0.00 | 92 | 1012.5 |
| 20260507045547 | 48 | 289 | 0.9 | 3.5 | 0.00 | 0.09 | 0.00 | 92 | 1012.5 |
| 20260507045043 | 48 | 286 | 0.9 | 3.5 | 0.00 | 0.09 | 0.00 | 93 | 1012.3 |
| 20260507044552 | 48 | 292 | 0.0 | 3.5 | 0.00 | 0.09 | 0.00 | 93 | 1012.3 |
| 20260507044041 | 48 | 313 | 0.9 | 3.5 | 0.00 | 0.09 | 0.00 | 93 | 1012.2 |
| 20260507043541 | 48 | 263 | 0.9 | 3.5 | 0.00 | 0.09 | 0.00 | 93 | 1012.2 |
| 20260507043055 | 48 | 276 | 1.7 | 3.5 | 0.00 | 0.09 | 0.00 | 93 | 1012.2 |
| 20260507042540 | 48 | 272 | 1.7 | 3.5 | 0.00 | 0.09 | 0.00 | 93 | 1012.1 |
| 20260507042042 | 48 | 311 | 0.9 | 3.5 | 0.00 | 0.09 | 0.00 | 93 | 1012.1 |
| 20260507041538 | 48 | 286 | 0.0 | 1.7 | 0.00 | 0.09 | 0.00 | 93 | 1012.0 |
| 20260507041037 | 48 | 283 | 0.0 | 3.5 | 0.00 | 0.09 | 0.00 | 93 | 1011.9 |
| 20260507040537 | 48 | 299 | 0.9 | 3.5 | 0.00 | 0.09 | 0.00 | 93 | 1011.9 |
| 20260507040035 | 48 | 299 | 0.0 | 1.7 | 0.00 | 0.09 | 0.00 | 93 | 1011.9 |
| 20260507035535 | 49 | 298 | 0.0 | 1.7 | 0.00 | 0.09 | 0.00 | 93 | 1011.9 |
| 20260507035035 | 49 | 311 | 0.0 | 1.7 | 0.00 | 0.09 | 0.00 | 93 | 1011.8 |
| 20260507034536 | 49 | 311 | 0.0 | 0.9 | 0.00 | 0.09 | 0.00 | 93 | 1011.8 |
| 20260507034034 | 49 | 311 | 0.0 | 1.7 | 0.00 | 0.09 | 0.00 | 93 | 1011.8 |
| 20260507033534 | 49 | 311 | 0.0 | 1.7 | 0.00 | 0.09 | 0.00 | 93 | 1011.8 |
| 20260507033135 | 49 | 306 | 0.0 | 1.7 | 0.00 | 0.09 | 0.00 | 93 | 1011.8 |
| 20260507032533 | 49 | 304 | 0.0 | 1.7 | 0.00 | 0.09 | 0.00 | 93 | 1011.6 |
| 20260507032032 | 49 | 304 | 0.0 | 0.9 | 0.00 | 0.09 | 0.00 | 93 | 1011.7 |
| 20260507031532 | 49 | 304 | 0.0 | 0.9 | 0.00 | 0.09 | 0.00 | 93 | 1011.7 |
| 20260507031032 | 49 | 304 | 0.0 | 0.9 | 0.00 | 0.09 | 0.00 | 93 | 1011.7 |
| 20260507030536 | 49 | 304 | 0.0 | 1.7 | 0.00 | 0.09 | 0.00 | 93 | 1011.6 |
| 20260507030031 | 49 | 304 | 0.0 | 1.7 | 0.00 | 0.09 | 0.00 | 93 | 1011.6 |
| 20260507025530 | 49 | 304 | 0.0 | 2.6 | 0.00 | 0.09 | 0.00 | 93 | 1011.5 |
| 20260507025035 | 49 | 328 | 0.0 | 1.7 | 0.00 | 0.09 | 0.00 | 93 | 1011.5 |
| 20260507024531 | 49 | 309 | 0.0 | 1.7 | 0.00 | 0.09 | 0.00 | 93 | 1011.5 |
| 20260507024030 | 49 | 314 | 0.0 | 1.7 | 0.00 | 0.09 | 0.00 | 93 | 1011.5 |
| 20260507023532 | 49 | 314 | 0.0 | 3.5 | 0.00 | 0.09 | 0.00 | 93 | 1011.6 |
| 20260507023028 | 49 | 346 | 0.0 | 3.5 | 0.00 | 0.09 | 0.00 | 93 | 1011.4 |
| 20260507022528 | 49 | 302 | 0.0 | 1.7 | 0.00 | 0.09 | 0.00 | 93 | 1011.4 |
| 20260507022030 | 49 | 286 | 0.0 | 3.5 | 0.00 | 0.09 | 0.00 | 93 | 1011.4 |
| 20260507021527 | 49 | 309 | 0.0 | 3.5 | 0.00 | 0.09 | 0.00 | 93 | 1011.3 |
| 20260507021025 | 49 | 279 | 0.0 | 2.6 | 0.00 | 0.09 | 0.00 | 93 | 1011.2 |
| 20260507020525 | 49 | 283 | 0.9 | 2.6 | 0.00 | 0.09 | 0.00 | 93 | 1011.2 |
| 20260507020042 | 49 | 289 | 0.0 | 2.6 | 0.00 | 0.09 | 0.00 | 93 | 1011.2 |
| 20260507015523 | 49 | 315 | 0.0 | 2.6 | 0.00 | 0.09 | 0.00 | 92 | 1011.2 |
| 20260507015023 | 49 | 278 | 0.9 | 2.6 | 0.00 | 0.09 | 0.00 | 92 | 1011.0 |
| 20260507014523 | 49 | 292 | 0.0 | 2.6 | 0.00 | 0.09 | 0.00 | 92 | 1011.1 |
| 20260507014023 | 49 | 288 | 0.9 | 2.6 | 0.00 | 0.09 | 0.00 | 93 | 1011.1 |
| 20260507013522 | 49 | 307 | 0.9 | 3.5 | 0.00 | 0.09 | 0.00 | 92 | 1011.1 |
| 20260507013024 | 49 | 343 | 0.0 | 3.5 | 0.00 | 0.09 | 0.00 | 92 | 1011.1 |
| 20260507012520 | 49 | 286 | 0.9 | 2.6 | 0.00 | 0.09 | 0.00 | 92 | 1011.0 |
| 20260507012021 | 49 | 294 | 0.0 | 2.6 | 0.00 | 0.09 | 0.00 | 92 | 1011.0 |
| 20260507011534 | 49 | 273 | 0.9 | 2.6 | 0.00 | 0.09 | 0.00 | 92 | 1011.0 |
| 20260507011019 | 49 | 294 | 0.9 | 4.3 | 0.00 | 0.09 | 0.00 | 92 | 1011.0 |
| 20260507010519 | 50 | 299 | 1.7 | 4.3 | 0.00 | 0.09 | 0.00 | 92 | 1010.9 |
| 20260507010019 | 50 | 286 | 0.9 | 2.6 | 0.00 | 0.09 | 0.00 | 92 | 1010.9 |
| 20260507005519 | 50 | 274 | 0.0 | 2.6 | 0.00 | 0.09 | 0.00 | 92 | 1010.9 |
| 20260507005018 | 50 | 259 | 0.0 | 2.6 | 0.00 | 0.09 | 0.00 | 92 | 1011.0 |
| 20260507004517 | 50 | 264 | 0.0 | 2.6 | 0.00 | 0.09 | 0.00 | 92 | 1010.9 |
| 20260507004017 | 50 | 254 | 0.9 | 2.6 | 0.00 | 0.09 | 0.00 | 92 | 1010.9 |
| 20260507003517 | 50 | 285 | 0.9 | 2.6 | 0.00 | 0.09 | 0.00 | 92 | 1010.8 |
| 20260507003015 | 50 | 282 | 0.0 | 2.6 | 0.00 | 0.09 | 0.00 | 92 | 1010.9 |
| 20260507002515 | 50 | 273 | 0.0 | 3.5 | 0.00 | 0.09 | 0.00 | 92 | 1010.8 |
| 20260507002015 | 50 | 290 | 0.9 | 3.5 | 0.00 | 0.09 | 0.00 | 92 | 1010.7 |
| 20260507001543 | 50 | 263 | 0.0 | 2.6 | 0.00 | 0.09 | 0.00 | 92 | 1010.6 |
| 20260507001016 | 50 | 306 | 0.9 | 2.6 | 0.00 | 0.09 | 0.00 | 92 | 1010.7 |
| 20260507000514 | 50 | 303 | 0.0 | 2.6 | 0.00 | 0.09 | 0.00 | 92 | 1010.7 |
| 20260507000016 | 50 | 299 | 0.9 | 3.5 | 0.00 | 0.09 | 0.00 | 92 | 1010.7 |
| 20260506235514 | 50 | 260 | 0.9 | 3.5 | 0.00 | 0.10 | 0.00 | 92 | 1010.7 |
| 20260506235014 | 50 | 290 | 0.9 | 3.5 | 0.00 | 0.10 | 0.00 | 92 | 1010.6 |
| 20260506234513 | 50 | 290 | 1.7 | 3.5 | 0.00 | 0.10 | 0.00 | 92 | 1010.7 |
| 20260506234013 | 50 | 285 | 0.9 | 3.5 | 0.00 | 0.10 | 0.00 | 92 | 1010.7 |
| 20260506233513 | 50 | 317 | 0.9 | 3.5 | 0.00 | 0.10 | 0.00 | 92 | 1010.6 |
| 20260506233012 | 50 | 275 | 0.9 | 4.3 | 0.00 | 0.10 | 0.00 | 92 | 1010.6 |
| 20260506232511 | 50 | 273 | 1.7 | 4.3 | 0.00 | 0.10 | 0.00 | 92 | 1010.6 |
| 20260506232011 | 50 | 303 | 0.9 | 2.6 | 0.00 | 0.10 | 0.00 | 92 | 1010.6 |
| 20260506231511 | 50 | 273 | 0.9 | 4.3 | 0.00 | 0.10 | 0.00 | 92 | 1010.6 |
| 20260506231009 | 50 | 248 | 0.9 | 4.3 | 0.00 | 0.10 | 0.00 | 92 | 1010.5 |
| 20260506230515 | 50 | 279 | 0.9 | 3.5 | 0.00 | 0.10 | 0.00 | 92 | 1010.5 |
| 20260506230009 | 50 | 277 | 0.9 | 3.5 | 0.00 | 0.10 | 0.00 | 92 | 1010.5 |
| 20260506225509 | 50 | 270 | 0.9 | 2.6 | 0.00 | 0.20 | 0.00 | 92 | 1010.4 |
| 20260506225008 | 50 | 281 | 0.9 | 3.5 | 0.00 | 0.20 | 0.00 | 92 | 1010.4 |
| 20260506224508 | 50 | 279 | 0.9 | 3.5 | 0.00 | 0.20 | 0.00 | 92 | 1010.3 |
| 20260506224007 | 50 | 290 | 0.9 | 3.5 | 0.00 | 0.20 | 0.00 | 92 | 1010.3 |
| 20260506223507 | 50 | 277 | 0.9 | 4.3 | 0.00 | 0.20 | 0.00 | 92 | 1010.3 |
| 20260506223006 | 50 | 296 | 1.7 | 4.3 | 0.00 | 0.20 | 0.00 | 92 | 1010.3 |
| 20260506222510 | 50 | 299 | 0.0 | 3.5 | 0.00 | 0.20 | 0.00 | 92 | 1010.2 |
| 20260506222005 | 50 | 348 | 0.9 | 5.2 | 0.00 | 0.20 | 0.00 | 92 | 1010.2 |
| 20260506221506 | 50 | 296 | 0.9 | 5.2 | 0.00 | 0.20 | 0.00 | 92 | 1010.1 |
| 20260506221005 | 50 | 303 | 0.9 | 5.2 | 0.00 | 0.20 | 0.00 | 92 | 1010.1 |
| 20260506220505 | 50 | 308 | 1.7 | 5.2 | 0.00 | 0.20 | 0.00 | 92 | 1010.1 |
| 20260506220004 | 50 | 313 | 0.0 | 4.3 | 0.00 | 0.20 | 0.20 | 92 | 1010.1 |
| 20260506215504 | 50 | 298 | 0.9 | 3.5 | 0.00 | 0.20 | 0.20 | 92 | 1010.1 |
| 20260506215006 | 50 | 294 | 0.0 | 4.3 | 0.00 | 0.20 | 0.20 | 92 | 1010.0 |
| 20260506214503 | 50 | 291 | 0.0 | 4.3 | 0.00 | 0.20 | 0.20 | 92 | 1010.0 |
| 20260506214003 | 51 | 309 | 0.9 | 3.5 | 0.00 | 0.20 | 0.20 | 92 | 1010.0 |
| 20260506213503 | 51 | 302 | 0.9 | 2.6 | 0.00 | 0.20 | 0.20 | 92 | 1009.9 |
| 20260506213106 | 51 | 339 | 0.0 | 2.6 | 0.00 | 0.20 | 0.20 | 92 | 1010.0 |
| 20260506212602 | 51 | 267 | 0.9 | 2.6 | 0.00 | 0.20 | 0.20 | 92 | 1009.9 |
| 20260506212102 | 51 | 5 | 0.0 | 2.6 | 0.00 | 0.20 | 0.20 | 92 | 1009.8 |
| 20260506211559 | 51 | 320 | 0.0 | 3.5 | 0.00 | 0.20 | 0.20 | 92 | 1009.8 |
| 20260506211059 | 51 | 286 | 0.9 | 3.5 | 0.00 | 0.20 | 0.20 | 92 | 1009.7 |
| 20260506210559 | 51 | 294 | 0.9 | 2.6 | 0.00 | 0.20 | 0.20 | 92 | 1009.7 |
| 20260506205601 | 51 | 277 | 0.0 | 3.5 | 0.00 | 0.20 | 0.20 | 92 | 1009.6 |
| 20260506205056 | 51 | 323 | 0.0 | 3.5 | 0.00 | 0.20 | 0.20 | 92 | 1009.6 |
| 20260506204558 | 51 | 280 | 0.9 | 3.5 | 0.00 | 0.20 | 0.20 | 92 | 1009.5 |
| 20260506204056 | 51 | 289 | 0.9 | 4.3 | 0.00 | 0.20 | 0.20 | 92 | 1009.5 |
| 20260506203554 | 51 | 293 | 0.9 | 5.2 | 0.00 | 0.20 | 0.20 | 92 | 1009.4 |
| 20260506203112 | 51 | 284 | 0.9 | 6.1 | 0.00 | 0.20 | 0.20 | 92 | 1009.4 |
| 20260506202553 | 52 | 294 | 0.9 | 4.3 | 0.00 | 0.20 | 0.20 | 92 | 1009.4 |
| 20260506202053 | 52 | 285 | 1.7 | 4.3 | 0.00 | 0.20 | 0.20 | 92 | 1009.4 |
| 20260506201552 | 52 | 303 | 0.9 | 3.5 | 0.00 | 0.20 | 0.20 | 92 | 1009.3 |
| 20260506201054 | 52 | 302 | 0.9 | 6.1 | 0.00 | 0.20 | 0.20 | 92 | 1009.2 |
| 20260506200557 | 52 | 286 | 0.9 | 6.1 | 0.00 | 0.20 | 0.20 | 92 | 1009.2 |
| 20260506200056 | 52 | 294 | 0.9 | 6.1 | 0.00 | 0.20 | 0.20 | 92 | 1009.2 |
| 20260506195550 | 52 | 310 | 0.9 | 5.2 | 0.00 | 0.20 | 0.20 | 92 | 1009.1 |
| 20260506195050 | 52 | 275 | 0.9 | 3.5 | 0.00 | 0.20 | 0.20 | 92 | 1009.1 |
| 20260506194550 | 52 | 277 | 0.0 | 4.3 | 0.00 | 0.20 | 0.20 | 92 | 1009.1 |
| 20260506194048 | 52 | 281 | 1.7 | 4.3 | 0.00 | 0.20 | 0.20 | 92 | 1009.0 |
| 20260506193547 | 52 | 265 | 0.9 | 3.5 | 0.00 | 0.20 | 0.20 | 92 | 1009.0 |
| 20260506193050 | 53 | 295 | 0.9 | 3.5 | 0.00 | 0.20 | 0.20 | 92 | 1008.9 |
| 20260506192546 | 53 | 339 | 0.9 | 3.5 | 0.00 | 0.20 | 0.20 | 92 | 1008.8 |
| 20260506192045 | 53 | 294 | 0.9 | 3.5 | 0.00 | 0.20 | 0.20 | 92 | 1008.8 |
| 20260506191545 | 53 | 288 | 0.9 | 2.6 | 0.00 | 0.20 | 0.20 | 92 | 1008.7 |
| 20260506191044 | 53 | 294 | 0.0 | 3.5 | 0.00 | 0.20 | 0.20 | 92 | 1008.7 |
| 20260506190543 | 54 | 289 | 0.9 | 3.5 | 0.00 | 0.20 | 0.20 | 92 | 1008.6 |
| 20260506190045 | 54 | 287 | 0.0 | 0.0 | 0.00 | 0.20 | 0.20 | 92 | 1008.4 |
| 20260506185542 | 54 | 287 | 0.0 | 0.0 | 0.00 | 0.20 | 0.20 | 92 | 1008.4 |
| 20260506185041 | 54 | 254 | 0.0 | 0.0 | 0.00 | 0.20 | 0.20 | 92 | 1008.3 |
| 20260506184545 | 54 | 260 | 0.0 | 0.9 | 0.00 | 0.20 | 0.20 | 92 | 1008.3 |
| 20260506184040 | 54 | 272 | 0.0 | 2.6 | 0.00 | 0.20 | 0.20 | 91 | 1008.2 |
| 20260506183542 | 54 | 294 | 0.0 | 2.6 | 0.00 | 0.20 | 0.20 | 91 | 1008.2 |
| 20260506183038 | 54 | 329 | 0.0 | 3.5 | 0.00 | 0.20 | 0.20 | 91 | 1008.0 |
| 20260506182537 | 54 | 288 | 0.9 | 3.5 | 0.00 | 0.20 | 0.20 | 91 | 1008.0 |
| 20260506182037 | 54 | 290 | 0.9 | 2.6 | 0.00 | 0.20 | 0.20 | 91 | 1007.9 |
| 20260506181541 | 55 | 271 | 0.9 | 2.6 | 0.00 | 0.20 | 0.20 | 91 | 1007.9 |
| 20260506181036 | 55 | 286 | 0.0 | 2.6 | 0.00 | 0.20 | 0.20 | 91 | 1007.7 |
| 20260506180538 | 55 | 292 | 0.0 | 2.6 | 0.00 | 0.20 | 0.20 | 91 | 1007.7 |
| 20260506180036 | 55 | 285 | 0.0 | 3.5 | 0.01 | 0.20 | 0.20 | 91 | 1007.6 |
| 20260506175535 | 55 | 265 | 0.9 | 3.5 | 0.02 | 0.20 | 0.20 | 91 | 1007.6 |
| 20260506175035 | 56 | 289 | 0.0 | 3.5 | 0.03 | 0.20 | 0.20 | 91 | 1007.5 |
| 20260506174538 | 56 | 300 | 0.0 | 2.6 | 0.04 | 0.20 | 0.20 | 90 | 1007.5 |
| 20260506174035 | 56 | 333 | 0.0 | 3.5 | 0.06 | 0.20 | 0.20 | 90 | 1007.3 |
| 20260506173535 | 56 | 336 | 0.0 | 3.5 | 0.07 | 0.20 | 0.20 | 90 | 1007.2 |
| 20260506173036 | 56 | 323 | 0.9 | 2.6 | 0.07 | 0.20 | 0.20 | 90 | 1007.2 |
| 20260506172534 | 56 | 318 | 0.0 | 2.6 | 0.07 | 0.20 | 0.20 | 90 | 1007.2 |
| 20260506172034 | 57 | 316 | 0.0 | 3.5 | 0.07 | 0.20 | 0.20 | 89 | 1007.2 |
| 20260506171536 | 57 | 286 | 0.9 | 2.6 | 0.07 | 0.20 | 0.20 | 89 | 1007.2 |
| 20260506171035 | 57 | 317 | 0.9 | 2.6 | 0.07 | 0.20 | 0.20 | 89 | 1007.2 |
| 20260506170537 | 57 | 277 | 0.0 | 1.7 | 0.07 | 0.20 | 0.20 | 88 | 1007.1 |
| 20260506170038 | 57 | 328 | 0.0 | 1.7 | 0.06 | 0.20 | 0.19 | 88 | 1007.1 |
| 20260506165535 | 57 | 331 | 0.0 | 1.7 | 0.06 | 0.20 | 0.18 | 88 | 1007.1 |
| 20260506165034 | 58 | 319 | 0.0 | 1.7 | 0.04 | 0.18 | 0.17 | 87 | 1007.1 |
| 20260506164548 | 58 | 311 | 0.0 | 4.3 | 0.03 | 0.17 | 0.16 | 87 | 1007.1 |
| 20260506164033 | 58 | 323 | 0.9 | 4.3 | 0.01 | 0.15 | 0.13 | 87 | 1007.1 |
| 20260506163533 | 58 | 291 | 0.0 | 1.7 | 0.00 | 0.14 | 0.13 | 87 | 1007.0 |
| 20260506163037 | 58 | 344 | 0.0 | 1.7 | 0.00 | 0.14 | 0.13 | 86 | 1006.8 |
| 20260506162535 | 58 | 292 | 0.0 | 2.6 | 0.00 | 0.14 | 0.13 | 86 | 1006.7 |
| 20260506162034 | 58 | 340 | 0.0 | 3.5 | 0.00 | 0.14 | 0.13 | 86 | 1006.7 |
| 20260506161532 | 58 | 301 | 0.9 | 3.5 | 0.01 | 0.14 | 0.13 | 86 | 1006.8 |
| 20260506161032 | 59 | 305 | 0.0 | 2.6 | 0.02 | 0.14 | 0.13 | 86 | 1006.8 |
| 20260506160532 | 59 | 300 | 0.0 | 2.6 | 0.02 | 0.14 | 0.13 | 85 | 1006.7 |
| 20260506160035 | 59 | 313 | 0.0 | 2.6 | 0.02 | 0.14 | 0.13 | 85 | 1006.8 |
| 20260506155532 | 59 | 282 | 0.0 | 2.6 | 0.02 | 0.20 | 0.13 | 85 | 1006.8 |
| 20260506155033 | 59 | 304 | 0.0 | 2.6 | 0.02 | 0.20 | 0.13 | 84 | 1006.8 |
| 20260506154531 | 59 | 281 | 0.0 | 1.7 | 0.02 | 0.20 | 0.13 | 84 | 1006.8 |
| 20260506154031 | 59 | 308 | 0.0 | 3.5 | 0.02 | 0.20 | 0.13 | 84 | 1006.8 |
| 20260506153532 | 60 | 290 | 0.0 | 4.3 | 0.02 | 0.20 | 0.13 | 83 | 1006.7 |
| 20260506153030 | 60 | 340 | 0.0 | 4.3 | 0.02 | 0.20 | 0.13 | 82 | 1006.8 |
| 20260506152532 | 60 | 311 | 0.0 | 5.2 | 0.02 | 0.20 | 0.13 | 81 | 1006.8 |
| 20260506152030 | 61 | 307 | 1.7 | 6.1 | 0.02 | 0.20 | 0.13 | 79 | 1006.7 |
| 20260506151533 | 62 | 293 | 2.6 | 7.0 | 0.01 | 0.19 | 0.12 | 77 | 1006.6 |
| 20260506151032 | 62 | 298 | 2.6 | 7.0 | 0.00 | 0.18 | 0.11 | 73 | 1006.6 |
| 20260506150530 | 63 | 300 | 0.9 | 6.1 | 0.00 | 0.18 | 0.11 | 72 | 1006.5 |
| 20260506150030 | 63 | 255 | 2.6 | 6.1 | 0.00 | 0.18 | 0.11 | 70 | 1006.5 |
| 20260506145530 | 63 | 263 | 1.7 | 7.8 | 0.00 | 0.18 | 0.11 | 69 | 1006.4 |
| 20260506145030 | 63 | 259 | 2.6 | 7.0 | 0.00 | 0.18 | 0.11 | 69 | 1006.4 |
| 20260506144530 | 63 | 275 | 2.6 | 7.0 | 0.00 | 0.18 | 0.11 | 68 | 1006.3 |
| 20260506144029 | 63 | 111 | 0.9 | 7.0 | 0.00 | 0.18 | 0.11 | 68 | 1006.3 |
| 20260506143531 | 64 | 324 | 1.7 | 7.0 | 0.00 | 0.18 | 0.11 | 69 | 1006.2 |
| 20260506143036 | 64 | 237 | 1.7 | 6.1 | 0.00 | 0.18 | 0.11 | 68 | 1006.2 |
| 20260506142529 | 64 | 279 | 2.6 | 7.0 | 0.00 | 0.18 | 0.11 | 67 | 1006.3 |
| 20260506142027 | 64 | 206 | 1.7 | 7.0 | 0.00 | 0.18 | 0.11 | 67 | 1006.2 |
| 20260506141531 | 65 | 248 | 0.9 | 7.0 | 0.00 | 0.18 | 0.11 | 67 | 1006.2 |
| 20260506141028 | 65 | 296 | 1.7 | 7.0 | 0.00 | 0.18 | 0.11 | 67 | 1006.2 |
| 20260506140530 | 65 | 333 | 2.6 | 7.0 | 0.00 | 0.18 | 0.11 | 67 | 1006.1 |
| 20260506140027 | 65 | 217 | 2.6 | 6.1 | 0.00 | 0.18 | 0.11 | 68 | 1006.2 |
| 20260506135526 | 64 | 193 | 1.7 | 6.1 | 0.00 | 0.18 | 0.11 | 67 | 1006.2 |
| 20260506135028 | 64 | 232 | 0.9 | 7.0 | 0.00 | 0.18 | 0.11 | 67 | 1006.2 |
| 20260506134526 | 64 | 252 | 1.7 | 6.1 | 0.00 | 0.18 | 0.11 | 67 | 1006.2 |
| 20260506134026 | 64 | 217 | 1.7 | 6.1 | 0.00 | 0.18 | 0.11 | 67 | 1006.2 |
| 20260506133526 | 64 | 216 | 2.6 | 7.0 | 0.00 | 0.18 | 0.11 | 68 | 1006.3 |
| 20260506133027 | 64 | 202 | 0.9 | 7.0 | 0.00 | 0.18 | 0.11 | 68 | 1006.2 |
| 20260506132528 | 64 | 250 | 2.6 | 7.0 | 0.00 | 0.18 | 0.11 | 66 | 1006.2 |
| 20260506132025 | 64 | 325 | 0.9 | 6.1 | 0.00 | 0.18 | 0.11 | 66 | 1006.2 |
| 20260506131525 | 64 | 238 | 2.6 | 5.2 | 0.00 | 0.18 | 0.11 | 66 | 1006.2 |
| 20260506131025 | 64 | 208 | 1.7 | 7.0 | 0.00 | 0.18 | 0.11 | 66 | 1006.3 |
| 20260506130528 | 64 | 301 | 1.7 | 7.8 | 0.00 | 0.18 | 0.11 | 67 | 1006.2 |
| 20260506130027 | 64 | 245 | 1.7 | 7.0 | 0.00 | 0.18 | 0.11 | 67 | 1006.2 |
| 20260506125524 | 64 | 207 | 2.6 | 7.0 | 0.00 | 0.18 | 0.11 | 66 | 1006.2 |
| 20260506125026 | 64 | 204 | 1.7 | 5.2 | 0.00 | 0.18 | 0.11 | 68 | 1006.2 |
| 20260506124524 | 64 | 223 | 1.7 | 5.2 | 0.00 | 0.18 | 0.11 | 68 | 1006.2 |
| 20260506124024 | 64 | 246 | 2.6 | 7.0 | 0.00 | 0.18 | 0.11 | 68 | 1006.2 |
| 20260506123523 | 63 | 216 | 0.9 | 7.8 | 0.00 | 0.18 | 0.11 | 68 | 1006.3 |
| 20260506123023 | 63 | 231 | 1.7 | 6.1 | 0.00 | 0.18 | 0.11 | 68 | 1006.3 |
| 20260506122523 | 63 | 224 | 2.6 | 6.1 | 0.00 | 0.18 | 0.11 | 68 | 1006.4 |
| 20260506122022 | 63 | 227 | 1.7 | 6.1 | 0.00 | 0.18 | 0.11 | 68 | 1006.4 |
| 20260506121523 | 63 | 195 | 1.7 | 7.8 | 0.00 | 0.18 | 0.11 | 68 | 1006.4 |
| 20260506121022 | 63 | 213 | 4.3 | 7.8 | 0.00 | 0.18 | 0.11 | 68 | 1006.5 |
| 20260506120522 | 63 | 203 | 2.6 | 7.8 | 0.00 | 0.18 | 0.11 | 67 | 1006.5 |
| 20260506120046 | 63 | 264 | 3.5 | 7.0 | 0.00 | 0.18 | 0.11 | 67 | 1006.4 |
| 20260506115525 | 63 | 191 | 3.5 | 8.7 | 0.00 | 0.18 | 0.11 | 67 | 1006.4 |
| 20260506115021 | 64 | 211 | 2.6 | 8.7 | 0.00 | 0.18 | 0.11 | 67 | 1006.4 |
| 20260506114521 | 64 | 228 | 4.3 | 8.7 | 0.00 | 0.18 | 0.11 | 67 | 1006.4 |
| 20260506114021 | 63 | 259 | 2.6 | 7.8 | 0.00 | 0.18 | 0.11 | 68 | 1006.4 |
| 20260506113521 | 63 | 244 | 4.3 | 9.6 | 0.00 | 0.18 | 0.11 | 67 | 1006.5 |
| 20260506113021 | 63 | 196 | 4.3 | 9.6 | 0.00 | 0.18 | 0.11 | 67 | 1006.4 |
| 20260506112521 | 63 | 300 | 2.6 | 7.8 | 0.00 | 0.18 | 0.11 | 67 | 1006.4 |
| 20260506112020 | 63 | 150 | 3.5 | 7.8 | 0.00 | 0.18 | 0.11 | 68 | 1006.5 |
| 20260506111520 | 63 | 217 | 3.5 | 7.0 | 0.00 | 0.18 | 0.11 | 69 | 1006.5 |
| 20260506111020 | 63 | 200 | 3.5 | 6.1 | 0.00 | 0.18 | 0.11 | 68 | 1006.5 |
| 20260506110520 | 63 | 207 | 2.6 | 6.1 | 0.00 | 0.18 | 0.11 | 70 | 1006.5 |
| 20260506110020 | 63 | 264 | 2.6 | 7.8 | 0.00 | 0.18 | 0.11 | 69 | 1006.5 |
| 20260506105524 | 64 | 196 | 1.7 | 9.6 | 0.00 | 0.18 | 0.11 | 69 | 1006.6 |
| 20260506105020 | 64 | 165 | 3.5 | 10.4 | 0.00 | 0.18 | 0.11 | 68 | 1006.6 |
| 20260506104531 | 64 | 234 | 5.2 | 10.4 | 0.00 | 0.18 | 0.11 | 67 | 1006.5 |
| 20260506104024 | 64 | 202 | 2.6 | 9.6 | 0.00 | 0.18 | 0.11 | 67 | 1006.6 |
| 20260506103519 | 65 | 250 | 3.5 | 8.7 | 0.00 | 0.18 | 0.11 | 67 | 1006.5 |
| 20260506103035 | 65 | 223 | 2.6 | 8.7 | 0.00 | 0.18 | 0.11 | 67 | 1006.5 |
| 20260506102520 | 65 | 254 | 2.6 | 6.1 | 0.00 | 0.18 | 0.11 | 68 | 1006.6 |
| 20260506102018 | 65 | 312 | 3.5 | 6.1 | 0.00 | 0.18 | 0.11 | 67 | 1006.6 |
| 20260506101519 | 65 | 243 | 2.6 | 9.6 | 0.00 | 0.18 | 0.11 | 67 | 1006.6 |
| 20260506101018 | 65 | 154 | 2.6 | 9.6 | 0.00 | 0.18 | 0.11 | 68 | 1006.6 |
| 20260506100520 | 65 | 177 | 2.6 | 8.7 | 0.00 | 0.18 | 0.11 | 68 | 1006.6 |
| 20260506100015 | 64 | 248 | 0.0 | 8.7 | 0.00 | 0.18 | 0.11 | 70 | 1006.5 |
| 20260506095513 | 64 | 183 | 4.3 | 10.4 | 0.00 | 0.18 | 0.11 | 71 | 1006.5 |
| 20260506095014 | 63 | 206 | 4.3 | 10.4 | 0.00 | 0.18 | 0.11 | 72 | 1006.5 |
| 20260506094513 | 62 | 209 | 3.5 | 7.0 | 0.00 | 0.18 | 0.11 | 73 | 1006.5 |
| 20260506094012 | 61 | 193 | 3.5 | 7.0 | 0.00 | 0.18 | 0.11 | 73 | 1006.4 |